Tracking 31027 objects as of 19-Jul-2025
HD Live streaming from Space Station
objects crossing your sky now

NADEZHDA 2

Track NADEZHDA 2 now!
10-day predictions
NADEZHDA 2 is classified as:


NORAD ID: 20508
Int'l Code: 1990-017A
Perigee: 959.1 km
Apogee: 1,022.0 km
Inclination: 83.0 °
Period: 104.8 minutes
Semi major axis: 7361 km
RCS: 2.5733 m2 (large)
Launch date: February 27, 1990
Source: Commonwealth of Independent States (former USSR) (CIS)
Launch site: PLESETSK MISSILE AND SPACE COMPLEX (PKMTR)
Your satellite tracking list
SL-12 R/B(AUX MOTOR)
Track 1 satellite(s)




NASA's NSSDC Master Catalog

Two Line Element Set (TLE):
1 20508U 90017A   25199.57906024  .00000047  00000-0  34243-4 0  9992
2 20508  82.9583 320.4714 0042710 290.4929  79.6792 13.74515382774559
Source of the keplerian elements: AFSPC